STARLINK-35558, 66060

Orbit data source: Space-Track

STARLINK-35558, 66060 is a payload satellite owned by SpaceX/Seattle (US) in LEO that was launched on Sun, 19 Oct 2025 UTC via an FALCON 9 launch vehicle from the Air Force Eastern Test Range (AFETR). Payload-class satellites include a variety of spacecraft equipped with specific instruments for various scientific and technological missions. These include communications satellites like Starlink; space stations such as the ISS; scientific satellites like the Hubble; Earth observation satellites from companies like Planet Labs, Umbra, and HawkEye 360; GPS; miniature CubeSats for education and research; and military/defense satellites.

Loading next visibility...
Identifier
66060, 2025-235C
Orbit
LEO
Country
Flag of USUS
Related business
Manufacturer
SpaceX/Seattle
Mission
Operational spacecraft
Bus & Motor
STARLINK V2MO, Unknown motor
Mass
575 kg wet, ~530 kg dry
Launch date (UTC)
2025-10-19 (2 weeks ago)
Launch vehicle
FALCON 9
Launch site
Air Force Eastern Test Range (AFETR)
Object type
Payload
Rocket body
Debris
Shape & HBR
Unknown
Radar Cross Section
RCS unknown

Expand to show TLE details & history
Last TLE update: 8 hours ago

TLE from 8 hours ago
0 STARLINK-35558
1 66060U 25235C   25305.58335648 -.01479468  00000-0 -91677-2 0  9995
2 66060  53.1504 124.8154 0000602  81.5063 315.4338 15.79192662  3260
Epoch: 2025-11-01T14:00Z
TLE epoch observation values (Epoch: 2025-11-01T14:00:01.999Z)
Latitude
28.83082°
Longitude
-102.08605°
Altitude
333.956 km
Speed
7.712 km/s
True Right ascension
09h 56m 08s
True Declination
28° 40' 36"
Sunlit
Object was in daylight at epoch
Visualization orbit readout
Latitude
Unknown
Longitude
Unknown
Altitude
Unknown
Speed
Unknown
Apparent Right ascension
Unknown
Apparent Declination
Unknown
Sunlit
N/A
Visualization observer readout
Local Sidereal Time
17:28:08
Azimuth
Unknown
Elevation
Unknown
Doppler factor
Unknown
Orbital elements
Apogee altitude
333.394 km
Perigee altitude
332.586 km
Semi-major axis
6,711.127 km
Eccentricity
0.00006
Inclination
53.1504°
RAAN
124.8154°
Arg. of periapsis
81.5063°
True anomaly
315.42896°
Mean anomaly
315.4338°
Eccentric anomaly
315.43138°
Mean motion
3.94775 °/min
Orbital period
91.19 mins
BSTAR
-0.0091677
Loading maneuver chart data...
Computing Atmospheric mass density...
Loading historical data...
Loading historical data...
Loading historical data...
Loading historical data...
Loading historical data...
Loading historical data...
Loading historical data...

Documentation

Showing up to 5 results
|